| time (UTC) | temp F | wind direction | speed MPH | gust MPH | rain 1hr in | rain 24hr in | rain mn in | humidity % | barometer mb |
| 20260506193027 | 41 | 259 | 5.0 | 10.0 | 0.00 | 0.00 | 0.00 | 54 | 1017.2 |
| 20260506192523 | 41 | 257 | 7.0 | 10.0 | 0.00 | 0.00 | 0.00 | 54 | 1017.4 |
| 20260506192019 | 42 | 283 | 6.0 | 9.0 | 0.00 | 0.00 | 0.00 | 53 | 1017.2 |
| 20260506191516 | 41 | 279 | 6.0 | 8.0 | 0.00 | 0.00 | 0.00 | 54 | 1017.5 |
| 20260506191012 | 42 | 301 | 6.0 | 11.0 | 0.00 | 0.00 | 0.00 | 53 | 1017.5 |
| 20260506190510 | 42 | 264 | 6.0 | 10.0 | 0.00 | 0.00 | 0.00 | 52 | 1017.0 |
| 20260506190007 | 41 | 288 | 6.0 | 8.0 | 0.00 | 0.00 | 0.00 | 53 | 1017.5 |
| 20260506185504 | 42 | 239 | 3.0 | 8.0 | 0.00 | 0.00 | 0.00 | 53 | 1017.2 |
| 20260506185000 | 41 | 254 | 4.0 | 7.0 | 0.00 | 0.00 | 0.00 | 54 | 1017.1 |
| 20260506184457 | 42 | 286 | 8.0 | 9.0 | 0.00 | 0.00 | 0.00 | 54 | 1017.4 |
| 20260506183954 | 41 | 329 | 5.0 | 7.0 | 0.00 | 0.00 | 0.00 | 54 | 1017.5 |
| 20260506183450 | 41 | 288 | 6.0 | 8.0 | 0.00 | 0.00 | 0.00 | 52 | 1017.5 |
| 20260506182947 | 42 | 341 | 6.0 | 13.0 | 0.00 | 0.00 | 0.00 | 55 | 1017.5 |
| 20260506182444 | 42 | 305 | 7.0 | 11.0 | 0.00 | 0.00 | 0.00 | 53 | 1017.4 |
| 20260506181941 | 42 | 334 | 8.0 | 10.0 | 0.00 | 0.00 | 0.00 | 52 | 1017.2 |
| 20260506181439 | 41 | 257 | 6.0 | 10.0 | 0.00 | 0.00 | 0.00 | 53 | 1017.5 |
| 20260506180936 | 42 | 313 | 6.0 | 9.0 | 0.00 | 0.00 | 0.00 | 52 | 1017.5 |
| 20260506180432 | 41 | 264 | 6.0 | 7.0 | 0.00 | 0.00 | 0.00 | 55 | 1017.6 |
| 20260506175929 | 41 | 309 | 3.0 | 9.0 | 0.00 | 0.00 | 0.00 | 59 | 1017.5 |
| 20260506175426 | 41 | 324 | 6.0 | 13.0 | 0.00 | 0.00 | 0.00 | 54 | 1017.5 |
| 20260506174923 | 42 | 282 | 7.0 | 11.0 | 0.00 | 0.00 | 0.00 | 54 | 1017.7 |
| 20260506174421 | 41 | 251 | 9.0 | 14.0 | 0.00 | 0.00 | 0.00 | 52 | 1017.6 |
| 20260506173917 | 41 | 324 | 2.0 | 9.0 | 0.00 | 0.00 | 0.00 | 53 | 1017.7 |
| 20260506173414 | 41 | 315 | 6.0 | 10.0 | 0.00 | 0.00 | 0.00 | 53 | 1017.8 |
| 20260506172911 | 41 | 310 | 5.0 | 10.0 | 0.00 | 0.00 | 0.00 | 55 | 1017.9 |
| 20260506172408 | 41 | 247 | 5.0 | 9.0 | 0.00 | 0.00 | 0.00 | 54 | 1018.0 |
| 20260506171905 | 42 | 303 | 6.0 | 7.0 | 0.00 | 0.00 | 0.00 | 55 | 1018.0 |
| 20260506171402 | 40 | 18 | 6.0 | 9.0 | 0.00 | 0.00 | 0.00 | 56 | 1018.0 |
| 20260506170900 | 40 | 337 | 9.0 | 11.0 | 0.00 | 0.00 | 0.00 | 53 | 1018.0 |
| 20260506170355 | 39 | 357 | 7.0 | 9.0 | 0.00 | 0.00 | 0.00 | 54 | 1018.0 |
| 20260506165849 | 40 | 336 | 7.0 | 10.0 | 0.00 | 0.00 | 0.00 | 54 | 1017.9 |
| 20260506165347 | 39 | 326 | 6.0 | 10.0 | 0.00 | 0.00 | 0.00 | 56 | 1017.8 |
| 20260506164843 | 39 | 293 | 8.0 | 9.0 | 0.00 | 0.00 | 0.00 | 56 | 1018.2 |
| 20260506164339 | 40 | 336 | 4.0 | 9.0 | 0.00 | 0.00 | 0.00 | 58 | 1018.1 |
| 20260506163838 | 40 | 0 | 6.0 | 8.0 | 0.00 | 0.00 | 0.00 | 57 | 1018.1 |
| 20260506163332 | 39 | 63 | 4.0 | 10.0 | 0.00 | 0.00 | 0.00 | 59 | 1018.2 |
| 20260506162827 | 39 | 331 | 7.0 | 10.0 | 0.00 | 0.00 | 0.00 | 57 | 1018.3 |
| 20260506162325 | 38 | 305 | 6.0 | 8.0 | 0.00 | 0.00 | 0.00 | 59 | 1018.2 |
| 20260506161817 | 38 | 261 | 6.0 | 7.0 | 0.00 | 0.00 | 0.00 | 60 | 1018.3 |
| 20260506161314 | 37 | 347 | 6.0 | 9.0 | 0.00 | 0.00 | 0.00 | 60 | 1018.6 |
| 20260506160812 | 37 | 260 | 5.0 | 8.0 | 0.00 | 0.00 | 0.00 | 62 | 1018.5 |
| 20260506160308 | 38 | 231 | 9.0 | 10.0 | 0.00 | 0.00 | 0.00 | 59 | 1018.4 |
| 20260506155807 | 37 | 348 | 2.0 | 10.0 | 0.00 | 0.00 | 0.00 | 62 | 1018.3 |
| 20260506155306 | 37 | 332 | 9.0 | 14.0 | 0.00 | 0.00 | 0.00 | 60 | 1018.4 |
| 20260506153416 | 37 | 321 | 5.0 | 9.0 | 0.00 | 0.00 | 0.00 | 63 | 1018.4 |
| 20260506152913 | 37 | 299 | 5.0 | 9.0 | 0.00 | 0.00 | 0.00 | 63 | 1018.4 |
| 20260506152410 | 36 | 281 | 8.0 | 13.0 | 0.00 | 0.00 | 0.00 | 63 | 1018.3 |
| 20260506151909 | 36 | 325 | 6.0 | 8.0 | 0.00 | 0.00 | 0.00 | 62 | 1018.4 |
| 20260506151405 | 37 | 303 | 3.0 | 14.0 | 0.00 | 0.00 | 0.00 | 64 | 1018.4 |
| 20260506150903 | 36 | 271 | 7.0 | 15.0 | 0.00 | 0.00 | 0.00 | 62 | 1018.2 |
| 20260506150359 | 36 | 301 | 5.0 | 8.0 | 0.00 | 0.00 | 0.00 | 64 | 1018.5 |
| 20260506145855 | 36 | 322 | 4.0 | 7.0 | 0.00 | 0.00 | 0.00 | 65 | 1018.2 |
| 20260506145352 | 36 | 14 | 6.0 | 13.0 | 0.00 | 0.00 | 0.00 | 63 | 1018.3 |
| 20260506144849 | 36 | 297 | 5.0 | 10.0 | 0.00 | 0.00 | 0.00 | 63 | 1018.5 |
| 20260506144346 | 36 | 340 | 3.0 | 8.0 | 0.00 | 0.00 | 0.00 | 65 | 1018.4 |
| 20260506143844 | 36 | 342 | 4.0 | 8.0 | 0.00 | 0.00 | 0.00 | 64 | 1018.3 |
| 20260506143341 | 36 | 353 | 5.0 | 7.0 | 0.00 | 0.00 | 0.00 | 65 | 1018.2 |
| 20260506142839 | 36 | 265 | 5.0 | 7.0 | 0.00 | 0.00 | 0.00 | 64 | 1018.3 |
| 20260506142337 | 36 | 340 | 5.0 | 8.0 | 0.00 | 0.00 | 0.00 | 65 | 1018.2 |
| 20260506141835 | 36 | 318 | 6.0 | 8.0 | 0.00 | 0.00 | 0.00 | 64 | 1018.2 |
| 20260506141333 | 36 | 287 | 2.0 | 9.0 | 0.00 | 0.00 | 0.00 | 65 | 1018.3 |
| 20260506140831 | 36 | 15 | 3.0 | 9.0 | 0.00 | 0.00 | 0.00 | 65 | 1018.3 |
| 20260506140327 | 36 | 227 | 1.0 | 8.0 | 0.00 | 0.00 | 0.00 | 66 | 1018.2 |
| 20260506135824 | 35 | 276 | 5.0 | 9.0 | 0.00 | 0.00 | 0.00 | 65 | 1018.2 |
| 20260506135321 | 36 | 349 | 6.0 | 8.0 | 0.00 | 0.00 | 0.00 | 65 | 1018.1 |
| 20260506134817 | 35 | 309 | 2.0 | 9.0 | 0.00 | 0.00 | 0.00 | 66 | 1017.9 |
| 20260506134314 | 35 | 347 | 4.0 | 7.0 | 0.00 | 0.00 | 0.00 | 66 | 1018.1 |
| 20260506133811 | 35 | 301 | 7.0 | 10.0 | 0.00 | 0.00 | 0.00 | 67 | 1018.0 |
| 20260506133308 | 35 | 314 | 6.0 | 11.0 | 0.00 | 0.00 | 0.00 | 66 | 1018.0 |
| 20260506132804 | 35 | 340 | 6.0 | 8.0 | 0.00 | 0.00 | 0.00 | 67 | 1018.1 |
| 20260506132302 | 36 | 354 | 6.0 | 11.0 | 0.00 | 0.00 | 0.00 | 67 | 1017.8 |
| 20260506131800 | 35 | 294 | 2.0 | 7.0 | 0.00 | 0.00 | 0.00 | 68 | 1017.9 |
| 20260506131255 | 35 | 36 | 5.0 | 7.0 | 0.00 | 0.00 | 0.00 | 66 | 1018.0 |
| 20260506130752 | 35 | 293 | 2.0 | 8.0 | 0.00 | 0.00 | 0.00 | 66 | 1017.9 |
| 20260506130249 | 35 | 353 | 5.0 | 7.0 | 0.00 | 0.00 | 0.00 | 67 | 1017.9 |
| 20260506125747 | 35 | 349 | 2.0 | 8.0 | 0.00 | 0.00 | 0.00 | 67 | 1017.8 |
| 20260506125245 | 35 | 292 | 5.0 | 9.0 | 0.00 | 0.00 | 0.00 | 67 | 1017.8 |
| 20260506124743 | 35 | 346 | 5.0 | 7.0 | 0.00 | 0.00 | 0.00 | 68 | 1017.6 |
| 20260506124240 | 35 | 287 | 4.0 | 7.0 | 0.00 | 0.00 | 0.00 | 69 | 1017.7 |
| 20260506123737 | 35 | 355 | 3.0 | 6.0 | 0.00 | 0.00 | 0.00 | 69 | 1017.6 |
| 20260506123237 | 35 | 336 | 2.0 | 7.0 | 0.00 | 0.00 | 0.00 | 68 | 1017.4 |
| 20260506122732 | 35 | 326 | 5.0 | 7.0 | 0.00 | 0.00 | 0.00 | 68 | 1017.5 |
| 20260506122230 | 35 | 338 | 5.0 | 7.0 | 0.00 | 0.00 | 0.00 | 69 | 1017.2 |
| 20260506121728 | 35 | 283 | 2.0 | 8.0 | 0.00 | 0.00 | 0.00 | 69 | 1017.5 |
| 20260506121225 | 35 | 296 | 2.0 | 6.0 | 0.00 | 0.00 | 0.00 | 68 | 1017.1 |
| 20260506120722 | 35 | 300 | 3.0 | 8.0 | 0.00 | 0.00 | 0.00 | 69 | 1017.1 |
| 20260506120219 | 35 | 343 | 2.0 | 4.0 | 0.00 | 0.00 | 0.00 | 69 | 1016.9 |
| 20260506115717 | 35 | 346 | 4.0 | 7.0 | 0.00 | 0.00 | 0.00 | 70 | 1017.0 |
| 20260506115215 | 35 | 316 | 2.0 | 3.0 | 0.00 | 0.00 | 0.00 | 71 | 1017.0 |
| 20260506114712 | 35 | 358 | 2.0 | 4.0 | 0.00 | 0.00 | 0.00 | 69 | 1016.9 |
| 20260506114210 | 35 | 278 | 4.0 | 7.0 | 0.00 | 0.00 | 0.00 | 70 | 1017.0 |
| 20260506113708 | 35 | 326 | 3.0 | 7.0 | 0.00 | 0.00 | 0.00 | 71 | 1016.8 |
| 20260506113205 | 35 | 301 | 4.0 | 7.0 | 0.00 | 0.00 | 0.00 | 70 | 1016.8 |
| 20260506112701 | 35 | 357 | 3.0 | 8.0 | 0.00 | 0.00 | 0.00 | 70 | 1016.6 |
| 20260506112159 | 35 | 283 | 5.0 | 6.0 | 0.00 | 0.00 | 0.00 | 71 | 1016.6 |
| 20260506111656 | 35 | 292 | 3.0 | 6.0 | 0.00 | 0.00 | 0.00 | 72 | 1016.6 |
| 20260506111154 | 35 | 324 | 2.0 | 6.0 | 0.00 | 0.00 | 0.00 | 71 | 1016.5 |
| 20260506110651 | 35 | 342 | 4.0 | 6.0 | 0.00 | 0.00 | 0.00 | 71 | 1016.5 |
| 20260506110149 | 35 | 320 | 3.0 | 3.0 | 0.00 | 0.00 | 0.00 | 72 | 1016.5 |
| 20260506105645 | 35 | 355 | 2.0 | 3.0 | 0.00 | 0.00 | 0.00 | 72 | 1016.3 |
| 20260506105142 | 35 | 323 | 3.0 | 6.0 | 0.00 | 0.00 | 0.00 | 71 | 1016.5 |
| 20260506104641 | 35 | 272 | 2.0 | 6.0 | 0.00 | 0.00 | 0.00 | 70 | 1016.4 |
| 20260506104138 | 35 | 322 | 4.0 | 6.0 | 0.00 | 0.00 | 0.00 | 70 | 1016.4 |
| 20260506103635 | 35 | 322 | 3.0 | 6.0 | 0.00 | 0.00 | 0.00 | 70 | 1016.3 |
| 20260506103132 | 35 | 353 | 3.0 | 4.0 | 0.00 | 0.00 | 0.00 | 70 | 1016.4 |
| 20260506102630 | 35 | 297 | 2.0 | 4.0 | 0.00 | 0.00 | 0.00 | 69 | 1016.3 |
| 20260506102127 | 35 | 6 | 4.0 | 7.0 | 0.00 | 0.00 | 0.00 | 69 | 1016.3 |
| 20260506101623 | 35 | 57 | 0.0 | 6.0 | 0.00 | 0.00 | 0.00 | 71 | 1016.2 |
| 20260506101120 | 35 | 343 | 3.0 | 4.0 | 0.00 | 0.00 | 0.00 | 71 | 1016.3 |
| 20260506100619 | 35 | 335 | 3.0 | 7.0 | 0.00 | 0.00 | 0.00 | 69 | 1016.2 |
| 20260506100116 | 35 | 326 | 3.0 | 4.0 | 0.00 | 0.00 | 0.00 | 71 | 1016.4 |
| 20260506095615 | 35 | 28 | 2.0 | 3.0 | 0.00 | 0.00 | 0.00 | 71 | 1016.4 |
| 20260506095111 | 35 | 273 | 1.0 | 2.0 | 0.00 | 0.00 | 0.00 | 70 | 1016.1 |
| 20260506094609 | 35 | 333 | 2.0 | 4.0 | 0.00 | 0.00 | 0.00 | 70 | 1016.4 |
| 20260506094106 | 35 | 300 | 3.0 | 3.0 | 0.00 | 0.00 | 0.00 | 71 | 1016.3 |
| 20260506093605 | 35 | 24 | 1.0 | 2.0 | 0.00 | 0.00 | 0.00 | 71 | 1016.3 |
| 20260506093102 | 35 | 308 | 3.0 | 4.0 | 0.00 | 0.00 | 0.00 | 71 | 1016.3 |
| 20260506092559 | 35 | 286 | 2.0 | 6.0 | 0.00 | 0.00 | 0.00 | 70 | 1016.1 |
| 20260506092056 | 35 | 329 | 1.0 | 3.0 | 0.00 | 0.00 | 0.00 | 71 | 1016.3 |
| 20260506091554 | 35 | 307 | 3.0 | 4.0 | 0.00 | 0.00 | 0.00 | 71 | 1016.2 |
| 20260506091052 | 35 | 317 | 3.0 | 6.0 | 0.00 | 0.00 | 0.00 | 70 | 1016.2 |
| 20260506090549 | 35 | 319 | 2.0 | 7.0 | 0.00 | 0.00 | 0.00 | 69 | 1016.1 |
| 20260506090045 | 35 | 296 | 0.0 | 2.0 | 0.00 | 0.00 | 0.00 | 70 | 1016.3 |
| 20260506085542 | 35 | 272 | 3.0 | 6.0 | 0.00 | 0.00 | 0.00 | 68 | 1016.2 |
| 20260506085038 | 35 | 280 | 1.0 | 3.0 | 0.00 | 0.00 | 0.00 | 70 | 1016.2 |
| 20260506084536 | 35 | 347 | 3.0 | 6.0 | 0.00 | 0.00 | 0.00 | 69 | 1016.1 |
| 20260506084032 | 35 | 306 | 2.0 | 6.0 | 0.00 | 0.00 | 0.00 | 69 | 1016.1 |
| 20260506083529 | 35 | 310 | 2.0 | 3.0 | 0.00 | 0.00 | 0.00 | 70 | 1016.1 |
| 20260506083026 | 35 | 282 | 1.0 | 4.0 | 0.00 | 0.00 | 0.00 | 70 | 1016.0 |
| 20260506082523 | 35 | 262 | 0.0 | 4.0 | 0.00 | 0.00 | 0.00 | 69 | 1016.0 |
| 20260506082019 | 35 | 308 | 2.0 | 3.0 | 0.00 | 0.00 | 0.00 | 69 | 1016.0 |
| 20260506081517 | 35 | 313 | 1.0 | 4.0 | 0.00 | 0.00 | 0.00 | 70 | 1016.0 |
| 20260506081014 | 35 | 285 | 2.0 | 2.0 | 0.00 | 0.00 | 0.00 | 69 | 1016.2 |
| 20260506080512 | 35 | 347 | 1.0 | 2.0 | 0.00 | 0.00 | 0.00 | 69 | 1016.1 |
| 20260506073455 | 35 | 47 | 2.0 | 4.0 | 0.00 | 0.00 | 0.00 | 68 | 1016.1 |
| 20260506072952 | 35 | 344 | 2.0 | 6.0 | 0.00 | 0.00 | 0.00 | 68 | 1016.0 |
| 20260506072449 | 35 | 0 | 3.0 | 4.0 | 0.00 | 0.00 | 0.00 | 69 | 1015.9 |
| 20260506071947 | 35 | 17 | 2.0 | 6.0 | 0.00 | 0.00 | 0.00 | 68 | 1015.8 |
| 20260506071445 | 35 | 358 | 2.0 | 6.0 | 0.00 | 0.00 | 0.00 | 67 | 1016.0 |
| 20260506070941 | 35 | 13 | 3.0 | 6.0 | 0.00 | 0.00 | 0.00 | 66 | 1015.7 |
| 20260506070439 | 35 | 0 | 2.0 | 4.0 | 0.00 | 0.00 | 0.00 | 67 | 1015.9 |
| 20260506062416 | 35 | 38 | 3.0 | 6.0 | 0.00 | 0.00 | 0.00 | 67 | 1016.0 |
| 20260506061912 | 35 | 26 | 4.0 | 6.0 | 0.00 | 0.00 | 0.00 | 67 | 1016.1 |
| 20260506061409 | 35 | 33 | 3.0 | 4.0 | 0.00 | 0.00 | 0.00 | 68 | 1016.1 |
| 20260506060907 | 35 | 85 | 3.0 | 6.0 | 0.00 | 0.00 | 0.00 | 68 | 1016.1 |
| 20260506060404 | 35 | 21 | 2.0 | 4.0 | 0.00 | 0.00 | 0.00 | 68 | 1016.0 |
| 20260506051336 | 36 | 291 | 1.0 | 4.0 | 0.00 | 0.00 | 0.00 | 68 | 1015.7 |
| 20260506050834 | 36 | 285 | 2.0 | 3.0 | 0.00 | 0.00 | 0.00 | 67 | 1015.9 |
| 20260506050331 | 36 | 308 | 0.0 | 2.0 | 0.00 | 0.00 | 0.00 | 68 | 1015.7 |
| 20260506044822 | 35 | 245 | 1.0 | 2.0 | 0.00 | 0.00 | 0.00 | 67 | 1015.6 |
| 20260506044320 | 36 | 255 | 5.0 | 6.0 | 0.00 | 0.00 | 0.00 | 66 | 1015.8 |
| 20260506043816 | 36 | 256 | 2.0 | 3.0 | 0.00 | 0.00 | 0.00 | 66 | 1015.6 |
| 20260506043314 | 36 | 254 | 1.0 | 2.0 | 0.00 | 0.00 | 0.00 | 66 | 1015.7 |
| 20260506042812 | 36 | 277 | 0.0 | 4.0 | 0.00 | 0.00 | 0.00 | 66 | 1015.5 |
| 20260506042311 | 36 | 309 | 3.0 | 4.0 | 0.00 | 0.00 | 0.00 | 65 | 1015.4 |
| 20260506041809 | 36 | 291 | 2.0 | 4.0 | 0.00 | 0.00 | 0.00 | 65 | 1015.5 |
| 20260506041305 | 36 | 313 | 2.0 | 2.0 | 0.00 | 0.00 | 0.00 | 65 | 1015.3 |
| 20260506040803 | 36 | 295 | 2.0 | 3.0 | 0.00 | 0.00 | 0.00 | 65 | 1015.5 |
| 20260506040300 | 36 | 347 | 2.0 | 6.0 | 0.00 | 0.00 | 0.00 | 64 | 1015.4 |
| 20260506035756 | 36 | 325 | 2.0 | 6.0 | 0.00 | 0.00 | 0.00 | 64 | 1015.4 |
| 20260506035253 | 36 | 310 | 1.0 | 3.0 | 0.00 | 0.00 | 0.00 | 65 | 1015.5 |
| 20260506034750 | 36 | 339 | 1.0 | 3.0 | 0.00 | 0.00 | 0.00 | 63 | 1015.3 |
| 20260506034248 | 36 | 9 | 3.0 | 4.0 | 0.00 | 0.00 | 0.00 | 63 | 1015.5 |
| 20260506033744 | 36 | 339 | 2.0 | 2.0 | 0.00 | 0.00 | 0.00 | 63 | 1015.3 |
| 20260506033242 | 36 | 295 | 1.0 | 3.0 | 0.00 | 0.00 | 0.00 | 62 | 1015.3 |
| 20260506032738 | 37 | 331 | 2.0 | 4.0 | 0.00 | 0.00 | 0.00 | 62 | 1015.2 |
| 20260506032235 | 37 | 303 | 1.0 | 4.0 | 0.00 | 0.00 | 0.00 | 61 | 1015.1 |
| 20260506031726 | 37 | 319 | 2.0 | 4.0 | 0.00 | 0.00 | 0.00 | 61 | 1015.2 |
| 20260506031224 | 37 | 296 | 1.0 | 2.0 | 0.00 | 0.00 | 0.00 | 61 | 1015.2 |
| 20260506030722 | 37 | 257 | 0.0 | 3.0 | 0.00 | 0.00 | 0.00 | 61 | 1015.1 |
| 20260506030219 | 37 | 335 | 2.0 | 3.0 | 0.00 | 0.00 | 0.00 | 61 | 1015.2 |
| 20260506025716 | 37 | 303 | 1.0 | 2.0 | 0.00 | 0.00 | 0.00 | 60 | 1015.2 |
| 20260506025212 | 38 | 293 | 1.0 | 2.0 | 0.00 | 0.00 | 0.00 | 60 | 1015.0 |
| 20260506024709 | 38 | 331 | 3.0 | 4.0 | 0.00 | 0.00 | 0.00 | 59 | 1015.3 |
| 20260506024205 | 38 | 299 | 1.0 | 2.0 | 0.00 | 0.00 | 0.00 | 59 | 1014.9 |
| 20260506023702 | 38 | 270 | 0.0 | 3.0 | 0.00 | 0.00 | 0.00 | 59 | 1015.1 |
| 20260506023200 | 38 | 42 | 2.0 | 6.0 | 0.00 | 0.00 | 0.00 | 57 | 1014.9 |
| 20260506022656 | 39 | 267 | 4.0 | 4.0 | 0.00 | 0.00 | 0.00 | 56 | 1014.6 |
| 20260506022154 | 39 | 341 | 4.0 | 6.0 | 0.00 | 0.00 | 0.00 | 57 | 1014.7 |
| 20260506021652 | 39 | 305 | 2.0 | 4.0 | 0.00 | 0.00 | 0.00 | 56 | 1014.5 |
| 20260506021148 | 39 | 315 | 2.0 | 4.0 | 0.00 | 0.00 | 0.00 | 57 | 1014.5 |
| 20260506020640 | 39 | 354 | 3.0 | 6.0 | 0.00 | 0.00 | 0.00 | 56 | 1014.4 |
| 20260506020137 | 39 | 312 | 4.0 | 6.0 | 0.00 | 0.00 | 0.00 | 55 | 1014.5 |
| 20260506015635 | 39 | 333 | 2.0 | 6.0 | 0.00 | 0.00 | 0.00 | 55 | 1014.5 |
| 20260506015131 | 40 | 356 | 5.0 | 8.0 | 0.00 | 0.00 | 0.00 | 54 | 1014.3 |
| 20260506014629 | 40 | 11 | 2.0 | 8.0 | 0.00 | 0.00 | 0.00 | 54 | 1014.2 |
| 20260506014124 | 40 | 11 | 3.0 | 7.0 | 0.00 | 0.00 | 0.00 | 54 | 1014.3 |
| 20260506013623 | 40 | 5 | 3.0 | 10.0 | 0.00 | 0.00 | 0.00 | 54 | 1014.2 |
| 20260506013119 | 40 | 313 | 4.0 | 8.0 | 0.00 | 0.00 | 0.00 | 53 | 1014.1 |
| 20260506012615 | 40 | 344 | 10.0 | 14.0 | 0.00 | 0.00 | 0.00 | 51 | 1014.2 |
| 20260506012111 | 40 | 313 | 8.0 | 14.0 | 0.00 | 0.00 | 0.00 | 52 | 1014.1 |
| 20260506011610 | 41 | 347 | 2.0 | 10.0 | 0.00 | 0.00 | 0.00 | 53 | 1014.2 |
| 20260506011106 | 41 | 313 | 5.0 | 13.0 | 0.00 | 0.00 | 0.00 | 52 | 1014.2 |
| 20260506010600 | 41 | 319 | 6.0 | 11.0 | 0.00 | 0.00 | 0.00 | 52 | 1014.1 |
| 20260506010056 | 41 | 338 | 9.0 | 15.0 | 0.00 | 0.00 | 0.00 | 51 | 1014.0 |
| 20260506005553 | 41 | 33 | 4.0 | 7.0 | 0.00 | 0.00 | 0.00 | 55 | 1014.0 |
| 20260506005049 | 41 | 342 | 6.0 | 9.0 | 0.00 | 0.00 | 0.00 | 53 | 1014.0 |
| 20260506004547 | 41 | 8 | 6.0 | 7.0 | 0.00 | 0.00 | 0.00 | 54 | 1013.8 |
| 20260506004043 | 41 | 310 | 4.0 | 14.0 | 0.00 | 0.00 | 0.00 | 53 | 1013.9 |
| 20260506003540 | 41 | 356 | 4.0 | 10.0 | 0.00 | 0.00 | 0.00 | 55 | 1013.7 |
| 20260506003036 | 41 | 294 | 6.0 | 9.0 | 0.00 | 0.00 | 0.00 | 53 | 1013.9 |
| 20260506002532 | 41 | 357 | 6.0 | 15.0 | 0.00 | 0.00 | 0.00 | 53 | 1013.8 |
| 20260506002028 | 41 | 284 | 4.0 | 6.0 | 0.00 | 0.00 | 0.00 | 54 | 1013.7 |
| 20260506001524 | 41 | 311 | 8.0 | 10.0 | 0.00 | 0.00 | 0.00 | 52 | 1013.9 |
| 20260506001022 | 41 | 260 | 5.0 | 11.0 | 0.00 | 0.00 | 0.00 | 54 | 1013.6 |
| 20260506000519 | 41 | 270 | 8.0 | 10.0 | 0.00 | 0.00 | 0.00 | 54 | 1013.7 |
| 20260506000017 | 41 | 347 | 6.0 | 8.0 | 0.00 | 0.00 | 0.00 | 55 | 1013.7 |
| 20260505235515 | 41 | 67 | 1.0 | 6.0 | 0.00 | 0.00 | 0.00 | 55 | 1013.5 |
| 20260505235011 | 41 | 296 | 6.0 | 8.0 | 0.00 | 0.00 | 0.00 | 54 | 1013.8 |
| 20260505234508 | 41 | 357 | 6.0 | 11.0 | 0.00 | 0.00 | 0.00 | 54 | 1013.7 |
| 20260505234005 | 42 | 279 | 6.0 | 9.0 | 0.00 | 0.00 | 0.00 | 55 | 1013.9 |
| 20260505233502 | 41 | 310 | 6.0 | 8.0 | 0.00 | 0.00 | 0.00 | 55 | 1013.5 |
| 20260505232959 | 41 | 0 | 4.0 | 8.0 | 0.00 | 0.00 | 0.00 | 55 | 1013.6 |
| 20260505232457 | 41 | 305 | 6.0 | 8.0 | 0.00 | 0.00 | 0.00 | 54 | 1013.8 |
| 20260505231954 | 42 | 296 | 7.0 | 9.0 | 0.00 | 0.00 | 0.00 | 53 | 1014.0 |
| 20260505231451 | 42 | 296 | 7.0 | 17.0 | 0.00 | 0.00 | 0.00 | 53 | 1014.0 |
| 20260505230949 | 41 | 305 | 9.0 | 11.0 | 0.00 | 0.00 | 0.00 | 54 | 1013.8 |
| 20260505230441 | 41 | 331 | 6.0 | 13.0 | 0.00 | 0.00 | 0.00 | 53 | 1013.7 |
| 20260505225937 | 42 | 282 | 9.0 | 15.0 | 0.00 | 0.00 | 0.00 | 54 | 1013.9 |
| 20260505225435 | 41 | 307 | 9.0 | 10.0 | 0.00 | 0.00 | 0.00 | 54 | 1013.7 |
| 20260505224930 | 41 | 288 | 9.0 | 13.0 | 0.00 | 0.00 | 0.00 | 55 | 1013.7 |
| 20260505224428 | 41 | 288 | 9.0 | 13.0 | 0.00 | 0.00 | 0.00 | 55 | 1013.6 |
| 20260505223925 | 43 | 271 | 6.0 | 7.0 | 0.00 | 0.00 | 0.00 | 53 | 1013.8 |
| 20260505223422 | 42 | 305 | 5.0 | 11.0 | 0.00 | 0.00 | 0.00 | 54 | 1013.9 |
| 20260505222918 | 43 | 269 | 6.0 | 11.0 | 0.00 | 0.00 | 0.00 | 52 | 1013.8 |
| 20260505222414 | 41 | 2 | 5.0 | 6.0 | 0.00 | 0.00 | 0.00 | 55 | 1013.6 |
| 20260505221910 | 42 | 308 | 8.0 | 11.0 | 0.00 | 0.00 | 0.00 | 55 | 1013.7 |
| 20260505221408 | 42 | 329 | 7.0 | 14.0 | 0.00 | 0.00 | 0.00 | 55 | 1013.5 |
| 20260505220905 | 42 | 326 | 7.0 | 10.0 | 0.00 | 0.00 | 0.00 | 56 | 1013.4 |
| 20260505220402 | 42 | 249 | 4.0 | 7.0 | 0.00 | 0.00 | 0.00 | 55 | 1013.5 |
| 20260505215859 | 42 | 196 | 4.0 | 8.0 | 0.00 | 0.00 | 0.00 | 56 | 1013.5 |
| 20260505215357 | 42 | 301 | 9.0 | 10.0 | 0.00 | 0.00 | 0.00 | 55 | 1013.8 |
| 20260505214855 | 42 | 275 | 7.0 | 8.0 | 0.00 | 0.00 | 0.00 | 57 | 1013.5 |
| 20260505214352 | 43 | 290 | 6.0 | 11.0 | 0.00 | 0.00 | 0.00 | 54 | 1013.5 |
| 20260505213849 | 42 | 258 | 6.0 | 11.0 | 0.00 | 0.00 | 0.00 | 53 | 1013.4 |
| 20260505213347 | 42 | 284 | 5.0 | 8.0 | 0.00 | 0.00 | 0.00 | 54 | 1013.4 |
| 20260505212843 | 42 | 298 | 4.0 | 8.0 | 0.00 | 0.00 | 0.00 | 54 | 1013.6 |
| 20260505212340 | 43 | 213 | 6.0 | 7.0 | 0.00 | 0.00 | 0.00 | 54 | 1013.3 |
| 20260505211836 | 43 | 283 | 4.0 | 6.0 | 0.00 | 0.00 | 0.00 | 51 | 1013.4 |
| 20260505211334 | 43 | 336 | 6.0 | 7.0 | 0.00 | 0.00 | 0.00 | 52 | 1013.6 |
| 20260505210830 | 42 | 265 | 10.0 | 11.0 | 0.00 | 0.00 | 0.00 | 54 | 1013.5 |
| 20260505210327 | 42 | 342 | 5.0 | 8.0 | 0.00 | 0.00 | 0.00 | 52 | 1013.2 |
| 20260505205824 | 42 | 276 | 8.0 | 10.0 | 0.00 | 0.00 | 0.00 | 51 | 1013.4 |
| 20260505205322 | 43 | 297 | 4.0 | 14.0 | 0.00 | 0.00 | 0.00 | 51 | 1013.4 |
| 20260505204819 | 43 | 302 | 4.0 | 9.0 | 0.00 | 0.00 | 0.00 | 51 | 1013.4 |
| 20260505204317 | 43 | 247 | 9.0 | 11.0 | 0.00 | 0.00 | 0.00 | 50 | 1013.3 |
| 20260505203814 | 43 | 315 | 9.0 | 11.0 | 0.00 | 0.00 | 0.00 | 50 | 1013.2 |
| 20260505203310 | 42 | 248 | 4.0 | 6.0 | 0.00 | 0.00 | 0.00 | 52 | 1013.4 |
| 20260505202807 | 42 | 263 | 7.0 | 9.0 | 0.00 | 0.00 | 0.00 | 51 | 1013.2 |
| 20260505202306 | 43 | 4 | 6.0 | 10.0 | 0.00 | 0.00 | 0.00 | 52 | 1013.4 |
| 20260505201800 | 43 | 341 | 2.0 | 10.0 | 0.00 | 0.00 | 0.00 | 54 | 1013.6 |
| 20260505201257 | 43 | 342 | 5.0 | 7.0 | 0.00 | 0.00 | 0.00 | 54 | 1013.5 |
| 20260505200755 | 43 | 315 | 6.0 | 10.0 | 0.00 | 0.00 | 0.00 | 51 | 1013.5 |
| 20260505200252 | 43 | 297 | 10.0 | 11.0 | 0.00 | 0.00 | 0.00 | 52 | 1013.4 |
| 20260505195747 | 43 | 274 | 9.0 | 13.0 | 0.00 | 0.00 | 0.00 | 52 | 1013.3 |
| 20260505195245 | 43 | 286 | 9.0 | 13.0 | 0.00 | 0.00 | 0.00 | 51 | 1013.1 |
| 20260505194742 | 43 | 292 | 8.0 | 10.0 | 0.00 | 0.00 | 0.00 | 52 | 1013.2 |
| 20260505194239 | 43 | 292 | 8.0 | 10.0 | 0.00 | 0.00 | 0.00 | 52 | 1013.3 |
| 20260505193734 | 42 | 309 | 7.0 | 9.0 | 0.00 | 0.00 | 0.00 | 53 | 1013.3 |